Regional Weather Roundup
Issued by NWS Grand Forks, ND

Home | Current Version | Previous Version | Graphics & Text | Print | Product List | Glossary On
Versions: 1 2 3 4 5 6 7 8 9 10 11 12 13 14 15 16 17 18 19 20 21 22 23 24 25 26 27 28 29 30 31 32 33 34 35 36 37 38 39 40 41 42 43 44 45 46 47 48 49 50
000
ASUS43 KFGF 021331
RWRFGF
PRAIRIE TO PINES  WEATHER ROUNDUP
NATIONAL WEATHER SERVICE EASTERN NORTH DAKOTA/GRAND FORKS ND
800 AM CDT MON MAY 02 2016

 **SATELLITE DATA USED TO AUGMENT SKY COVER AT AUTOMATED STATIONS**
 *****  WEATHER ACROSS EASTERN NORTH DAKOTA  *****

CITY           SKY/WX    TMP DP  RH WIND       PRES   REMARKS
GRAND FORKS    PTSUNNY   53  32  44 S6        30.03S
GRAND FRKS AFB PTSUNNY   51  33  50 W7        30.03S
DEVILS LAKE    CLOUDY    52  38  58 SW6       30.02S
FARGO          SUNNY     50  32  50 S3        30.06S
WAHPETON ARPT  MOSUNNY   45  34  65 CALM      30.08F
$$

 ***** WEATHER ACROSS CENTRAL AND WESTERN NORTH DAKOTA  *****

CITY           SKY/WX    TMP DP  RH WIND       PRES   REMARKS
BISMARCK       CLOUDY    44  40  85 CALM      30.04F
MINOT          CLOUDY    55  38  52 CALM      29.97S
JAMESTOWN      CLOUDY    50  37  61 W8        30.04S
MINOT AFB      CLOUDY    49  40  72 W6        29.96S
GARRISON         N/A     50  40  68 W12       29.99F
WILLISTON      MOSUNNY   52  35  52 W17       30.03S
DICKINSON      CLOUDY    46  33  60 W15       30.05S
HETTINGER      PTSUNNY   44  34  67 W13       30.09F
$$

 *****  OTHER AIRPORT OBSERVATIONS IN OUR AREA  *****

CITY           SKY/WX    TMP DP  RH WIND       PRES   REMARKS
WALHALLA       FAIR      55  36  47 N6        30.03S
GRAFTON AIRPOR FAIR      54  34  47 W5        30.04F
VALLEY CITY AR CLOUDY    50  36  57 SW6       30.06F
CANDO          PTSUNNY   50  41  71 S6        30.03S
CAVALIER APRT  FAIR      54  36  50 SW5       30.03S
GWINNER        FAIR      46  37  71 S10       30.08S
SHEYENNE NWR     N/A     47  37  69 SW5       29.95
ROLLA          FAIR      50  41  71 SE7       30.02R
 ***** THE ABOVE OBSERVATIONS ARE NON NWS ARE NOT QUALITY
       CONTROLLED AND MAY MIS-REPORT RAIN FOR SNOW...
$$

  *****  WEATHER ACROSS NORTHERN MINNESOTA  *****

CITY           SKY/WX    TMP DP  RH WIND       PRES   REMARKS
FLAG ISLAND    SUNNY     45  37  76 SE6       30.08R
WARROAD        SUNNY     50  36  57 CALM      30.07F
ROSEAU         MOSUNNY   50  36  57 CALM      30.06F
HALLOCK        SUNNY     52  30  43 SE7       30.03S
THF RVR FALLS  SUNNY     48  34  57 E5        30.07S
BAUDETTE       SUNNY     44  33  65 E3        30.08F
WASKISH        SUNNY     46  37  71 CALM      30.08F
CROOKSTON      SUNNY     52  34  50 S6        30.05F
STEPHEN NDAWN    N/A     48  34  57 SE8         N/A
GREENBUSH NDAW   N/A     54  34  47 E3          N/A
$$
  *****  WEATHER ACROSS CENTRAL AND WEST MINNESOTA  *****

CITY           SKY/WX    TMP DP  RH WIND       PRES   REMARKS
FOSSTON        SUNNY     52  36  54 S5        30.07F
BEMIDJI        SUNNY     46  34  65 CALM      30.08F
PARK RAPIDS    MOSUNNY   43  33  68 SE3       30.09S
ELBOW LAKE     FAIR      46  37  71 S3        30.10S
WADENA         CLOUDY    43  37  81 CALM      30.08F
DETROIT LAKES  SUNNY     48  37  66 SE3       30.08S
MOORHEAD       SUNNY     46  34  61 S6        30.07S
FERGUS FALLS   MOSUNNY   46  37  71 S5        30.07F
MORRIS MN      CLOUDY    52  37  58 W3        30.09S
STAPLES        MOSUNNY   45  34  65 S3        30.09F
$$
  *****  WEATHER ELSEWHERE ACROSS MINNESOTA  *****

CITY           SKY/WX    TMP DP  RH WIND       PRES   REMARKS
DULUTH         MOSUNNY   43  35  73 E5        30.12S
INTRNTL FALLS  SUNNY     43  34  70 SE3       30.10S
ELY            SUNNY     45  32  61 CALM      30.12S
CLOQUET        MOSUNNY   43  34  70 E3        30.12S
WHEATON        PTSUNNY   48  39  71 CALM      30.10F
BRAINERD       SUNNY     44  34  67 CALM      30.12R
HIBBING        SUNNY     38  33  82 CALM      30.12S
ALEXANDRIA     MOSUNNY   50  34  54 SW6       30.10S
SAINT CLOUD    SUNNY     43  36  76 CALM      30.12R
MINNEAPOLIS    SUNNY     48  37  65 CALM      30.12S
$$

  *****  WEATHER ACROSS SOUTH DAKOTA  *****

CITY           SKY/WX    TMP DP  RH WIND       PRES   REMARKS
SIOUX FALLS    MOSUNNY   41  38  89 CALM      30.13F
BROOKINGS      MOSUNNY   40  36  86 MISG      30.12R
WATERTOWN      CLOUDY    41  35  79 CALM      30.11S
HURON          CLOUDY    43  36  76 CALM      30.12R
SISSETON         N/A     51  34  52 W10       30.07S
ABERDEEN       PTSUNNY   41  35  79 S3        30.10S
MITCHELL       PTSUNNY   44  37  76 W5        30.14S
PIERRE         CLOUDY    40  34  79 SW13      30.10F
MOBRIDGE       CLOUDY    46  38  73 S5        30.05F
RAPID CITY     MOSUNNY   42  32  67 W7        30.14F
$$

  *****  SOME WEATHER IN NEARBY STATES *****

CITY           SKY/WX    TMP DP  RH WIND       PRES   REMARKS
GLASGOW MT     MOSUNNY   43  37  79 W7        30.12S
GREAT FALLS MT PTCLDY    38  34  85 SW7       30.18S
CHEYENNE WY    SUNNY     28  20  71 W9        30.24R WCI  19
SCOTTSBLUFF NE SUNNY     33  28  81 NW8       30.23R
OMAHA NE       PTSUNNY   47  42  83 N3        30.15R
DES MOINES IA  MOSUNNY   50  44  80 NE5       30.13R
DAVENPORT IA   CLOUDY    48  45  89 N7        30.09R
CHICAGO IL     MOSUNNY   48  39  71 NE10      30.04S
EAU CLAIRE WI  SUNNY     48  38  68 CALM      30.11S
LA CROSSE WI   SUNNY     44  38  79 SE3       30.13R
$$

  *****  SOME NATIONAL WEATHER *****

CITY           SKY/WX    TMP DP  RH WIND       PRES   REMARKS
LA GUARDIA NY  CLOUDY    48  46  93 CALM      30.01R
RALEIGH NC     PTSUNNY   71  66  84 SW8       30.03R
ATLANTA GA     MOSUNNY   71  65  81 SE5       30.04S
NEW ORLEANS LA CLOUDY    74  70  87 NE7       29.95R
OKLAHOMA CITY  MOSUNNY   49  43  80 N15       30.16S
ALBUQUERQUE NM PTCLDY    40  30  67 E13       30.28R
SALT LAKE CITY MOCLDY    44  32  62 CALM      30.17R
LOS ANGELES CA MOCLDY    58  53  84 N6        30.01S
BOISE ID       CLEAR     48  36  63 SE5       30.12R
SEATTLE WA     PTCLDY    57  44  62 NE3       29.96F
$$

*** WEATHER ACROSS MANITOBA...SASKATCHEWAN AND ONTARIO ***
                ***ONTARIO***

CITY           SKY/WX    TMP DP  RH WIND       PRES   REMARKS
GERALDTON      MOSUNNY   41  32  70 S5        30.12F
THUNDER BAY    MOSUNNY   39  34  81 VRB2      30.14S
SIOUX LOOKOUT  MOSUNNY   43  36  75 VRB2      30.08S
TORONTO        LGT RAIN  43  37  81 N15       29.98R
BIG TROUT LK   MOSUNNY   43  32  65 S3        29.97F
PICKLE LAKE    PTSUNNY   46  30  53 W3        30.05S
DRYDEN         SUNNY     46  34  61 CALM      30.09S
KENORA         PTSUNNY   48  30  49 S3        30.08S
$$
                *** MANITOBA***

CITY           SKY/WX    TMP DP  RH WIND       PRES   REMARKS
BRANDON        MOSUNNY   48  43  81 NE7       30.02S
DAUPHIN        SUNNY     45  43  93 NW7       30.03R
ISLAND LAKE    NOT AVBL
PILOT MOUND      N/A     48  43  81 SE7         N/A
THE PAS        CLOUDY    43  43 100 W2        30.03F
THOMPSON       PTSUNNY   45  37  76 SW7       29.92F
WINNIPEG       MOSUNNY   54  32  43 S5        30.04S
LYNN LAKE      SUNNY     54  32  43 W12G18    29.88F
CHURCHILL      PTSUNNY   37  34  87 N6        29.77F
GILLAM         CLOUDY    45  39  81 W7        29.86
$$
                ***SASKATCHEWAN***

CITY           SKY/WX    TMP DP  RH WIND       PRES   REMARKS
ESTEVAN        MOSUNNY   46  36  66 NW10G17   30.00S
KINDERSLEY     MOSUNNY   48  34  57 NW6       30.08R
LLOYDMINSTER   PTCLDY    52  41  66 W8        30.06R
PRINCE ALBERT  PTSUNNY   41  39  93 VRB2      30.05R
REGINA         MOSUNNY   45  36  70 CALM      30.03S
YORKTON        MOSUNNY   43  41  93 NW6       30.04R
N. BATTLEFORD  SUNNY     45  36  70 W5        30.07R
LA RONGE       MOSUNNY   41  34  75 CALM      30.01S
SASKATOON      MOSUNNY   46  37  71 E2        30.05S
SWIFT CURRENT  SUNNY     50  37  62 W14G22    30.09S
$$
NOTE: THESE ARE AUTOMATED STATIONS WITH LIMITED QUALITY CONTROL
      "FAIR" INDICATES FEW OR NO CLOUDS BELOW 12,000 FEET WITH NO
      SIGNIFICANT WEATHER AND/OR OBSTRUCTIONS TO VISIBILITY.
      SKY/WX - SKY CONDITION AND SIGNIFICANT WEATHER.
      TMP - AIR TEMPERATURE.    DP   - DEWPOINT TEMPERATURE.
      RH  - RELATIVE HUMIDITY.  PRES - PRESSURE.
      HX  - HEAT INDEX.         WCI  - WIND CHILL INDEX.
$




USA.gov is the U.S. government's official web portal to all federal, state and local government web resources and services.